カタログに戻る

STARLINK-30174

運用中通信VLEO
NORAD 57609·PAYLOAD·🇺🇸 United States

打ち上げ Aug 11, 2023 から Cape Canaveral Space Force Station

Loading…

次のパス (今後24時間)

TLE

最新Source: CelesTrak SupGP

元期: Sep 14, 2026, 21:47 UTC

1 57609C 23119H   26257.90812500  .00024487  00000+0  88694-3 0  2579
2 57609  43.0023  92.6819 0001658 277.7170 249.7285 15.27565111    19

AllMySatでSTARLINK-30174をリアルタイム追跡

Download on the App Store